Погода в Ястарне

Польша     54°42′04″N   18°40′12″E
темп.,
°C
ветер,
м/с
пор.,
м/с
влажн.,
%
обл.,
%
осадки,
мм/ч
давл.,
гПа
погр.,
м
14 августа, вс
вс1423:00+21всв69835 0.0 1018185
02:00+21в458160 0.0 1017106
05:00+21в458198 0.0 1016163
08:00+20в56785 0.0 1016252
11:00+20всв56755 0.0 1016286
14:00+21св67835 0.0 1014179
17:00+22св9128245 0.0 1012136
20:00+23в812785 0.0 1012128
15 августа, пн
пн1523:00+22в711827 0.0 1011142
02:00+22вюв69885 0.0 1011151
05:00+21вюв56863 0.0 1010139
08:00+21вюв68855 0.0 1010203
11:00+22вюв68815 0.0 1010141
14:00+23в7107556 0.0 100995
17:00+23всв9137719 0.0 1008121
20:00+23юв13187466 0.5 1008236
16 августа, вт
вт1623:00+22юв8128166 0.3 1009173
02:00+21юв6782100 0.3 1009137
05:00+21юв688699 0.0 1009181
08:00+21юв788699 0.0 1009229
11:00+21юв5683100 0.0 1010140
14:00+23всв44755 0.0 101030
17:00+23всв68808 0.1 100969
20:00+25в796732 0.1 100961
17 августа, ср
ср1723:00+22ссв11855 0.0 101014
02:00+21в22895 0.0 101030
05:00+21зюз33905 0.0 101034
08:00+21св11893 0.0 101111
11:00+22юв22800 0.0 101237
14:00+23в23770 0.0 101227
17:00+24св66805 0.0 101169
20:00+22всв46853 0.3 101150
18 августа, чт
чт1823:00+22ююв44825 0.8 101237
02:00+21ююв34835 0.8 101150
05:00+21вюв4485100 0.0 101147
08:00+21юв4584100 0.0 101182
11:00+21вюв3481100 0.0 101151
14:00+22всв44772 0.0 101145
17:00+23св578239 0.0 101076
20:00+23св712805 0.0 1009114